Regional Weather Roundup
Issued by NWS Albany, NY

Home | Current Version | Previous Version | Text Only | Print | Product List | Glossary On
Versions: 1 2 3 4 5 6 7 8 9 10 11 12 13 14 15 16 17 18 19 20 21 22 23 24 25 26 27
000
ASUS41 KALY 181610
RWRALY

NEW YORK STATE HOURLY WEATHER ROUNDUP
NATIONAL WEATHER SERVICE ALBANY NY
1200 PM EDT FRI APR 18 2014

NOTE: "FAIR" INDICATES FEW OR NO CLOUDS BELOW 12,000 FEET WITH NO
SIGNIFICANT WEATHER AND/OR NO OBSTRUCTIONS TO VISIBILITY.

NYZ032-033-038>043-046>054-057>066-NYZ062>081-181700-
EAST


CITY           SKY/WX    TMP DP  RH WIND       PRES   REMARKS
ALBANY         CLOUDY    45  21  38 S6G16     30.45F
GLENS FALLS    PTSUNNY  N/A N/A N/A S9        30.42F
POUGHKEEPSIE   NOT AVBL
NEWBURGH       SUNNY     41  28  60 CALM      30.47F
MONTGOMERY     CLOUDY    43  26  51 S6        30.46F
WHITE PLAINS   PTSUNNY   40  28  62 CALM      30.46F
ISLIP          PTSUNNY   44  30  57 NE6       30.46F
NEW YORK CITY  CLOUDY    40  27  59 NE9       30.50F WCI  34
CENTRAL PARK   PTSUNNY   42  28  57 VRB7      30.51F
$$

NYZ005>009-017-018-044>046-055-056-181700-
CENTRAL


CITY           SKY/WX    TMP DP  RH WIND       PRES   REMARKS
FULTON         PTSUNNY   51  31  46 S12G18    30.31F
SYRACUSE       PTSUNNY   52  31  44 SE8       30.32F
ROME           CLOUDY    48  29  47 E9        30.37F
ELMIRA         PTSUNNY   52  30  43 VRB5      30.33F
BINGHAMTON     CLOUDY    43  28  55 S9G17     30.34F
MONTICELLO     CLOUDY    39  27  60 SE9       30.43S WCI  33
$$

NYZ026>034-041>043-181700-
NORTH


CITY           SKY/WX    TMP DP  RH WIND       PRES   REMARKS
WATERTOWN      PTSUNNY   54  27  35 VRB7      30.30F
FORT DRUM      NOT AVBL
MASSENA        MOSUNNY   54  26  34 E7        30.31F
SARANAC LAKE   MOSUNNY   49  22  34 SW9       30.28F
PLATTSBURGH    PTSUNNY   45  18  34 SE24G30   30.37F
$$

NYZ001>004-010>016-019>021-181700-
WEST


CITY           SKY/WX    TMP DP  RH WIND       PRES   REMARKS
NIAGARA FALLS  CLOUDY    54  32  43 W12G22    30.26F
BUFFALO        CLOUDY    57  30  35 SW14      30.26F
DUNKIRK        CLOUDY    52  33  48 NW8       30.28R
JAMESTOWN      CLOUDY    54  30  40 S8        30.28F
WELLSVILLE     CLOUDY    51  27  39 SW9       30.29F
ROCHESTER      CLOUDY    54  33  45 S5        30.28F
PENN YAN       PTSUNNY   51  32  48 S9        30.29F
$$

             KEY
       WCI = WIND CHILL INDEX
       VSB = VISIBILITY
       HX  = HEAT INDEX
$$



USA.gov is the U.S. government's official web portal to all federal, state and local government web resources and services.